Home > Weather > Abidjan > Past weeks

Flag for Cote d'Ivoire (Ivory Coast) Weather for the Past 2 Weeks in Abidjan, Cote d'Ivoire (Ivory Coast)

Now
90 °F

Scattered clouds.


Feels Like: 105 °F
Forecast: N/A
Wind: 10 mph from Southwest

Location: Abidjan Airport

Current Time: May 1, 2016 at 5:58:14 PM

Latest Report: May 1, 2016 at 5:00 PM


Visibility: N/A

Pressure: 29.74 "Hg

Humidity: 71%

Dew Point: 79 °F

Location of AbidjanLocation

Historic Weather in Abidjan — Graph

°F

Abidjan Temperature Yesterday

Maximum temperature yesterday: 90 °F (at 10:30 AM)
Minimum temperature yesterday: 79 °F (at 6:30 AM)
Average temperature yesterday: 85 °F

High & Low Weather Summary for the Past Weeks

 TemperatureHumidityPressure
High91 °F (Apr 18, 12:00 PM)100% (Apr 17, 4:30 AM)30.01 "Hg (Apr 17, 4:30 AM)
Low73 °F (Apr 28, 8:00 PM)59% (Apr 17, 1:00 PM)29.71 "Hg (Apr 25, 3:30 PM)
Average85 °F81%29.83 "Hg
* Reported Apr 16 4:00 PM — May 1 4:30 PM, Abidjan, Weather by CustomWeather, © 2016

Note: Actual official high and low records may vary slightly from our data, if they occured in-between our weather recording intervals... More about our weather records

Advertising

Abidjan Weather History for the Previous 24 Hours

Scroll right to see more
 ConditionsComfort  
Time TempWeatherWind HumidityBarometerVisibility
4:30 PM
Sun, May 1
90 °FScattered clouds.13 mph71%29.74 "HgN/A
4:00 PM90 °FScattered clouds.15 mph71%29.74 "HgN/A
3:30 PM90 °FScattered clouds.13 mph75%29.74 "HgN/A
3:00 PM91 °FScattered clouds.13 mph67%29.77 "HgN/A
2:30 PM90 °FScattered clouds.13 mph75%29.77 "HgN/A
2:00 PM90 °FScattered clouds.12 mph71%29.77 "HgN/A
1:30 PM90 °FScattered clouds.10 mph71%29.80 "HgN/A
1:00 PM90 °FScattered clouds.9 mph71%29.80 "HgN/A
12:30 PM90 °FScattered clouds.10 mph71%29.83 "HgN/A
12:00 PM90 °FScattered clouds.10 mph71%29.83 "HgN/A
11:30 AM90 °FScattered clouds.9 mph67%29.83 "HgN/A
11:00 AM90 °FScattered clouds.9 mph71%29.83 "HgN/A
10:30 AM88 °FScattered clouds.10 mph75%29.86 "HgN/A
10:00 AM88 °FScattered clouds.9 mph75%29.86 "HgN/A
9:30 AM88 °FScattered clouds.9 mph75%29.86 "HgN/A
9:00 AM88 °FScattered clouds.9 mph79%29.86 "HgN/A
8:30 AM88 °FScattered clouds.7 mph79%29.86 "HgN/A
8:00 AM86 °FScattered clouds.6 mph84%29.83 "HgN/A
7:30 AM86 °FPassing clouds.6 mph84%29.83 "HgN/A
7:00 AM84 °FPassing clouds.6 mph84%29.83 "HgN/A
6:30 AM82 °FPassing clouds.7 mph89%29.80 "HgN/A
6:00 AM82 °FPassing clouds.7 mph89%29.80 "HgN/A
5:30 AM82 °FPassing clouds.6 mph89%29.80 "HgN/A
4:30 AM82 °FPassing clouds.7 mph89%29.77 "HgN/A
4:00 AM82 °FPassing clouds.8 mph89%29.77 "HgN/A
3:00 AM84 °FPassing clouds.7 mph84%29.77 "HgN/A
2:30 AM84 °FPassing clouds.7 mph84%29.77 "HgN/A
2:00 AM84 °FPassing clouds.7 mph84%29.80 "HgN/A
1:30 AM84 °FPassing clouds.7 mph84%29.80 "HgN/A
1:00 AM84 °FPassing clouds.8 mph84%29.80 "HgN/A
12:30 AM84 °FPassing clouds.8 mph84%29.83 "HgN/A
12:00 AM84 °FPassing clouds.7 mph84%29.83 "HgN/A
11:30 PM
Sat, Apr 30
84 °FPassing clouds.6 mph84%29.83 "HgN/A
11:00 PM84 °FPassing clouds.7 mph84%29.83 "HgN/A
10:30 PM84 °FPassing clouds.7 mph84%29.83 "HgN/A
10:00 PM84 °FPassing clouds.6 mph84%29.83 "HgN/A
9:00 PM84 °FPassing clouds.7 mph84%29.83 "HgN/A
8:30 PM84 °FPassing clouds.8 mph84%29.80 "HgN/A
8:00 PM84 °FPassing clouds.7 mph84%29.80 "HgN/A
7:30 PM84 °FPassing clouds.7 mph84%29.80 "HgN/A
7:00 PM84 °FPassing clouds.7 mph84%29.80 "HgN/A
6:30 PM86 °FPassing clouds.6 mph79%29.77 "HgN/A
6:00 PM86 °FPassing clouds.8 mph79%29.77 "HgN/A
5:30 PM88 °FPassing clouds.8 mph75%29.77 "HgN/A
5:00 PM88 °FPassing clouds.9 mph75%29.77 "HgN/A
Weather by CustomWeather, © 2016

See weather overviewHow to use our weather pages